Location: ????????
(60.5616°N, 46.8254°E)
Time: 18:04:49
(UTC+00:00)

Cosmos 1605 Rocket - Pass Details

Date: 18 February 2020
Orbit: 944 x 1007 km, 82.9° (Epoch: 27 March)

Event Time Altitude Azimuth Distance (km) Brightness Sun altitude
Rises 14:36:06 0° 191° (S) 3,728 7.4 -6.5°
Reaches altitude 10° 14:38:38 10° 192° (SSW) 2,780 6.7 -6.8°
Maximum altitude 14:45:03 89° 283° (WNW) 1,010 4.1 -7.5°
Drops below altitude 10° 14:51:27 10° 14° (NNE) 2,768 6.2 -8.3°
Sets 14:53:58 0° 15° (NNE) 3,713 6.8 -8.6°
